Powrót do katalogu

COSMOS 2424

GLONASS

AktywnyNawigacjaMEO
NORAD 29672·PAYLOAD·🇷🇺 Russia

Wystrzelony Dec 25, 2006 z Baikonur Cosmodrome

Loading…

Następne Przeloty (najbliższe 24 godziny)

TLE

ŚwieżeSource: Space-Track

Epoka: Sep 14, 2026, 00:59 UTC

1 29672U 06062C   26257.04104881  .00000019  00000-0  00000-0 0  9998
2 29672  64.6980 191.3460 0019339 176.1350 183.8806  2.13122864153476

Śledź COSMOS 2424 w czasie rzeczywistym z AllMySat

Download on the App Store